Year,Month,Day,Hour,Minute,Value (Times are PST for temperature in C)
2007,03,13,00,00,5.00
2007,03,13,00,01,5.00
2007,03,13,00,02,5.00
2007,03,13,00,03,5.00
2007,03,13,00,04,5.00
2007,03,13,00,05,4.90
2007,03,13,00,06,4.90
2007,03,13,00,07,4.80
2007,03,13,00,08,4.80
2007,03,13,00,09,4.70
2007,03,13,00,10,4.70
2007,03,13,00,11,4.70
2007,03,13,00,12,4.60
2007,03,13,00,13,4.50
2007,03,13,00,14,4.50
2007,03,13,00,15,4.50
2007,03,13,00,16,4.50
2007,03,13,00,17,4.50
2007,03,13,00,18,4.50
2007,03,13,00,19,4.50
2007,03,13,00,20,4.50
2007,03,13,00,21,4.50
2007,03,13,00,22,4.60
2007,03,13,00,23,4.60
2007,03,13,00,24,4.60
2007,03,13,00,25,4.60
2007,03,13,00,26,4.50
2007,03,13,00,27,4.50
2007,03,13,00,28,4.60
2007,03,13,00,29,4.60
2007,03,13,00,30,4.60
2007,03,13,00,31,4.60
2007,03,13,00,32,4.50
2007,03,13,00,33,4.50
2007,03,13,00,34,4.40
2007,03,13,00,35,4.40
2007,03,13,00,36,4.40
2007,03,13,00,37,4.30
2007,03,13,00,38,4.30
2007,03,13,00,39,4.20
2007,03,13,00,40,4.20
2007,03,13,00,41,4.10
2007,03,13,00,42,4.00
2007,03,13,00,43,3.90
2007,03,13,00,44,3.80
2007,03,13,00,45,3.70
2007,03,13,00,46,3.60
2007,03,13,00,47,3.50
2007,03,13,00,48,3.40
2007,03,13,00,49,3.40
2007,03,13,00,50,3.30
2007,03,13,00,51,3.30
2007,03,13,00,52,3.30
2007,03,13,00,53,3.30
2007,03,13,00,54,3.40
2007,03,13,00,55,3.50
2007,03,13,00,56,3.60
2007,03,13,00,57,3.70
2007,03,13,00,58,3.80
2007,03,13,00,59,3.90
2007,03,13,01,00,3.90
2007,03,13,01,01,4.00
2007,03,13,01,02,4.10
2007,03,13,01,03,4.10
2007,03,13,01,04,4.00
2007,03,13,01,05,4.10
2007,03,13,01,06,4.10
2007,03,13,01,07,4.10
2007,03,13,01,08,4.10
2007,03,13,01,09,4.20
2007,03,13,01,10,4.20
2007,03,13,01,11,4.20
2007,03,13,01,12,4.20
2007,03,13,01,13,4.20
2007,03,13,01,14,4.20
2007,03,13,01,15,4.10
2007,03,13,01,16,3.90
2007,03,13,01,17,3.80
2007,03,13,01,18,3.70
2007,03,13,01,19,3.70
2007,03,13,01,20,3.60
2007,03,13,01,21,3.70
2007,03,13,01,22,3.70
2007,03,13,01,23,3.70
2007,03,13,01,24,3.70
2007,03,13,01,25,3.80
2007,03,13,01,26,3.80
2007,03,13,01,27,3.90
2007,03,13,01,28,3.80
2007,03,13,01,29,3.70
2007,03,13,01,30,3.50
2007,03,13,01,31,3.40
2007,03,13,01,32,3.40
2007,03,13,01,33,3.30
2007,03,13,01,34,3.30
2007,03,13,01,35,3.30
2007,03,13,01,36,3.30
2007,03,13,01,37,3.30
2007,03,13,01,38,3.30
2007,03,13,01,39,3.20
2007,03,13,01,40,3.10
2007,03,13,01,41,3.00
2007,03,13,01,42,3.00
2007,03,13,01,43,2.90
2007,03,13,01,44,2.80
2007,03,13,01,45,2.70
2007,03,13,01,46,2.70
2007,03,13,01,47,2.70
2007,03,13,01,48,2.70
2007,03,13,01,49,2.70
2007,03,13,01,50,2.80
2007,03,13,01,51,2.90
2007,03,13,01,52,2.90
2007,03,13,01,53,2.80
2007,03,13,01,54,2.70
2007,03,13,01,55,2.60
2007,03,13,01,56,2.60
2007,03,13,01,57,2.60
2007,03,13,01,58,2.70
2007,03,13,01,59,2.90
2007,03,13,02,00,2.90
2007,03,13,02,01,3.10
2007,03,13,02,02,3.10
2007,03,13,02,03,3.10
2007,03,13,02,04,3.00
2007,03,13,02,05,2.80
2007,03,13,02,06,2.80
2007,03,13,02,07,2.70
2007,03,13,02,08,2.60
2007,03,13,02,09,2.50
2007,03,13,02,10,2.30
2007,03,13,02,11,2.10
2007,03,13,02,12,1.90
2007,03,13,02,13,1.80
2007,03,13,02,14,1.70
2007,03,13,02,15,1.70
2007,03,13,02,16,1.60
2007,03,13,02,17,1.50
2007,03,13,02,18,1.50
2007,03,13,02,19,1.70
2007,03,13,02,20,1.80
2007,03,13,02,21,1.90
2007,03,13,02,22,1.90
2007,03,13,02,23,2.00
2007,03,13,02,24,2.10
2007,03,13,02,25,2.10
2007,03,13,02,26,2.20
2007,03,13,02,27,2.30
2007,03,13,02,28,2.30
2007,03,13,02,29,2.30
2007,03,13,02,30,2.20
2007,03,13,02,31,2.10
2007,03,13,02,32,2.00
2007,03,13,02,33,1.90
2007,03,13,02,34,1.80
2007,03,13,02,35,1.70
2007,03,13,02,36,1.60
2007,03,13,02,37,1.60
2007,03,13,02,38,1.50
2007,03,13,02,39,1.40
2007,03,13,02,40,1.30
2007,03,13,02,41,1.30
2007,03,13,02,42,1.30
2007,03,13,02,43,1.10
2007,03,13,02,44,1.00
2007,03,13,02,45,1.00
2007,03,13,02,46,0.90
2007,03,13,02,47,0.80
2007,03,13,02,48,0.80
2007,03,13,02,49,0.70
2007,03,13,02,50,0.60
2007,03,13,02,51,0.60
2007,03,13,02,52,0.60
2007,03,13,02,53,0.50
2007,03,13,02,54,0.50
2007,03,13,02,55,0.40
2007,03,13,02,56,0.40
2007,03,13,02,57,0.30
2007,03,13,02,58,0.30
2007,03,13,02,59,0.30
2007,03,13,03,00,0.20
2007,03,13,03,01,0.20
2007,03,13,03,02,0.10
2007,03,13,03,03,0.10
2007,03,13,03,04,0.00
2007,03,13,03,05,0.00
2007,03,13,03,06,0.00
2007,03,13,03,07,0.00
2007,03,13,03,08,-0.10
2007,03,13,03,09,-0.10
2007,03,13,03,10,-0.10
2007,03,13,03,11,0.00
2007,03,13,03,12,0.00
2007,03,13,03,13,0.00
2007,03,13,03,14,0.10
2007,03,13,03,15,0.10
2007,03,13,03,16,0.00
2007,03,13,03,17,0.00
2007,03,13,03,18,0.00
2007,03,13,03,19,-0.10
2007,03,13,03,20,-0.10
2007,03,13,03,21,-0.10
2007,03,13,03,22,-0.10
2007,03,13,03,23,-0.10
2007,03,13,03,24,-0.20
2007,03,13,03,25,-0.20
2007,03,13,03,26,-0.20
2007,03,13,03,27,-0.20
2007,03,13,03,28,-0.20
2007,03,13,03,29,-0.20
2007,03,13,03,30,-0.20
2007,03,13,03,31,-0.20
2007,03,13,03,32,-0.20
2007,03,13,03,33,-0.20
2007,03,13,03,34,-0.30
2007,03,13,03,35,-0.30
2007,03,13,03,36,-0.30
2007,03,13,03,37,-0.30
2007,03,13,03,38,-0.30
2007,03,13,03,39,-0.40
2007,03,13,03,40,-0.40
2007,03,13,03,41,-0.40
2007,03,13,03,42,-0.40
2007,03,13,03,43,-0.50
2007,03,13,03,44,-0.50
2007,03,13,03,45,-0.50
2007,03,13,03,46,-0.60
2007,03,13,03,47,-0.60
2007,03,13,03,48,-0.60
2007,03,13,03,49,-0.60
2007,03,13,03,50,-0.60
2007,03,13,03,51,-0.60
2007,03,13,03,52,-0.60
2007,03,13,03,53,-0.60
2007,03,13,03,54,-0.50
2007,03,13,03,55,-0.50
2007,03,13,03,56,-0.50
2007,03,13,03,57,-0.40
2007,03,13,03,58,-0.40
2007,03,13,03,59,-0.40
2007,03,13,04,00,-0.40
2007,03,13,04,01,-0.40
2007,03,13,04,02,-0.40
2007,03,13,04,03,-0.40
2007,03,13,04,04,-0.40
2007,03,13,04,05,-0.40
2007,03,13,04,06,-0.40
2007,03,13,04,07,-0.40
2007,03,13,04,08,-0.30
2007,03,13,04,09,-0.30
2007,03,13,04,10,-0.20
2007,03,13,04,11,-0.20
2007,03,13,04,12,-0.20
2007,03,13,04,13,-0.20
2007,03,13,04,14,-0.10
2007,03,13,04,15,-0.10
2007,03,13,04,16,-0.10
2007,03,13,04,17,-0.10
2007,03,13,04,18,0.00
2007,03,13,04,19,0.00
2007,03,13,04,20,-0.10
2007,03,13,04,21,-0.10
2007,03,13,04,22,-0.10
2007,03,13,04,23,-0.20
2007,03,13,04,24,-0.20
2007,03,13,04,25,-0.30
2007,03,13,04,26,-0.30
2007,03,13,04,27,-0.40
2007,03,13,04,28,-0.40
2007,03,13,04,29,-0.40
2007,03,13,04,30,-0.50
2007,03,13,04,31,-0.50
2007,03,13,04,32,-0.50
2007,03,13,04,33,-0.50
2007,03,13,04,34,-0.50
2007,03,13,04,35,-0.40
2007,03,13,04,36,-0.40
2007,03,13,04,37,-0.40
2007,03,13,04,38,-0.40
2007,03,13,04,39,-0.50
2007,03,13,04,40,-0.50
2007,03,13,04,41,-0.60
2007,03,13,04,42,-0.60
2007,03,13,04,43,-0.50
2007,03,13,04,44,-0.50
2007,03,13,04,45,-0.50
2007,03,13,04,46,-0.60
2007,03,13,04,47,-0.60
2007,03,13,04,48,-0.70
2007,03,13,04,49,-0.70
2007,03,13,04,50,-0.70
2007,03,13,04,51,-0.60
2007,03,13,04,52,-0.60
2007,03,13,04,53,-0.50
2007,03,13,04,54,-0.50
2007,03,13,04,55,-0.50
2007,03,13,04,56,-0.60
2007,03,13,04,57,-0.70
2007,03,13,04,58,-0.70
2007,03,13,04,59,-0.60
2007,03,13,05,00,-0.60
2007,03,13,05,01,-0.60
2007,03,13,05,02,-0.60
2007,03,13,05,03,-0.60
2007,03,13,05,04,-0.50
2007,03,13,05,05,-0.40
2007,03,13,05,06,-0.30
2007,03,13,05,07,-0.20
2007,03,13,05,08,-0.30
2007,03,13,05,09,-0.30
2007,03,13,05,10,-0.20
2007,03,13,05,11,-0.20
2007,03,13,05,12,-0.10
2007,03,13,05,13,-0.20
2007,03,13,05,14,-0.30
2007,03,13,05,15,-0.30
2007,03,13,05,16,-0.30
2007,03,13,05,17,-0.30
2007,03,13,05,18,-0.40
2007,03,13,05,19,-0.50
2007,03,13,05,20,-0.50
2007,03,13,05,21,-0.60
2007,03,13,05,22,-0.70
2007,03,13,05,23,-0.70
2007,03,13,05,24,-0.80
2007,03,13,05,25,-0.80
2007,03,13,05,26,-0.90
2007,03,13,05,27,-0.80
2007,03,13,05,28,-0.90
2007,03,13,05,29,-0.90
2007,03,13,05,30,-0.90
2007,03,13,05,31,-0.90
2007,03,13,05,32,-0.90
2007,03,13,05,33,-1.00
2007,03,13,05,34,-1.00
2007,03,13,05,35,-1.00
2007,03,13,05,36,-1.00
2007,03,13,05,37,-1.10
2007,03,13,05,38,-1.10
2007,03,13,05,39,-1.10
2007,03,13,05,40,-1.10
2007,03,13,05,41,-1.10
2007,03,13,05,42,-1.10
2007,03,13,05,43,-1.00
2007,03,13,05,44,-1.00
2007,03,13,05,45,-1.00
2007,03,13,05,46,-1.10
2007,03,13,05,47,-1.00
2007,03,13,05,48,-1.10
2007,03,13,05,49,-1.10
2007,03,13,05,50,-1.10
2007,03,13,05,51,-1.10
2007,03,13,05,52,-1.20
2007,03,13,05,53,-1.20
2007,03,13,05,54,-1.20
2007,03,13,05,55,-1.20
2007,03,13,05,56,-1.20
2007,03,13,05,57,-1.20
2007,03,13,05,58,-1.20
2007,03,13,05,59,-1.20
2007,03,13,06,00,-1.20
2007,03,13,06,01,-1.20
2007,03,13,06,02,-1.20
2007,03,13,06,03,-1.20
2007,03,13,06,04,-1.20
2007,03,13,06,05,-1.20
2007,03,13,06,06,-1.10
2007,03,13,06,07,-1.00
2007,03,13,06,08,-1.00
2007,03,13,06,09,-1.00
2007,03,13,06,10,-0.90
2007,03,13,06,11,-0.90
2007,03,13,06,12,-0.90
2007,03,13,06,13,-0.90
2007,03,13,06,14,-0.80
2007,03,13,06,15,-0.80
2007,03,13,06,16,-0.80
2007,03,13,06,17,-0.80
2007,03,13,06,18,-0.70
2007,03,13,06,19,-0.70
2007,03,13,06,20,-0.70
2007,03,13,06,21,-0.70
2007,03,13,06,22,-0.70
2007,03,13,06,23,-0.70
2007,03,13,06,24,-0.60
2007,03,13,06,25,-0.50
2007,03,13,06,26,-0.50
2007,03,13,06,27,-0.40
2007,03,13,06,28,-0.30
2007,03,13,06,29,-0.30
2007,03,13,06,30,-0.30
2007,03,13,06,31,-0.30
2007,03,13,06,32,-0.30
2007,03,13,06,33,-0.30
2007,03,13,06,34,-0.30
2007,03,13,06,35,-0.30
2007,03,13,06,36,-0.30
2007,03,13,06,37,-0.30
2007,03,13,06,38,-0.20
2007,03,13,06,39,-0.20
2007,03,13,06,40,-0.10
2007,03,13,06,41,-0.10
2007,03,13,06,42,0.00
2007,03,13,06,43,0.10
2007,03,13,06,44,0.20
2007,03,13,06,45,0.20
2007,03,13,06,46,0.30
2007,03,13,06,47,0.30
2007,03,13,06,48,0.40
2007,03,13,06,49,0.40
2007,03,13,06,50,0.50
2007,03,13,06,51,0.60
2007,03,13,06,52,0.60
2007,03,13,06,53,0.70
2007,03,13,06,54,0.70
2007,03,13,06,55,0.70
2007,03,13,06,56,0.80
2007,03,13,06,57,0.90
2007,03,13,06,58,1.00
2007,03,13,06,59,1.00
2007,03,13,07,00,1.10
2007,03,13,07,01,1.20
2007,03,13,07,02,1.30
2007,03,13,07,03,1.30
2007,03,13,07,04,1.40
2007,03,13,07,05,1.40
2007,03,13,07,06,1.50
2007,03,13,07,07,1.50
2007,03,13,07,08,1.60
2007,03,13,07,09,1.70
2007,03,13,07,10,1.80
2007,03,13,07,11,1.90
2007,03,13,07,12,2.00
2007,03,13,07,13,2.10
2007,03,13,07,14,2.20
2007,03,13,07,15,2.20
2007,03,13,07,16,2.10
2007,03,13,07,17,2.00
2007,03,13,07,18,2.00
2007,03,13,07,19,2.00
2007,03,13,07,20,2.00
2007,03,13,07,21,2.10
2007,03,13,07,22,2.10
2007,03,13,07,23,2.10
2007,03,13,07,24,2.20
2007,03,13,07,25,2.20
2007,03,13,07,26,2.20
2007,03,13,07,27,2.30
2007,03,13,07,28,2.30
2007,03,13,07,29,2.30
2007,03,13,07,30,2.30
2007,03,13,07,31,2.30
2007,03,13,07,32,2.30
2007,03,13,07,33,2.30
2007,03,13,07,34,2.40
2007,03,13,07,35,2.50
2007,03,13,07,36,2.50
2007,03,13,07,37,2.40
2007,03,13,07,38,2.40
2007,03,13,07,39,2.40
2007,03,13,07,40,2.40
2007,03,13,07,41,2.40
2007,03,13,07,42,2.40
2007,03,13,07,43,2.40
2007,03,13,07,44,2.50
2007,03,13,07,45,2.40
2007,03,13,07,46,2.40
2007,03,13,07,47,2.40
2007,03,13,07,48,2.40
2007,03,13,07,49,2.40
2007,03,13,07,50,2.50
2007,03,13,07,51,2.50
2007,03,13,07,52,2.60
2007,03,13,07,53,2.60
2007,03,13,07,54,2.60
2007,03,13,07,55,2.70
2007,03,13,07,56,2.80
2007,03,13,07,57,2.80
2007,03,13,07,58,2.80
2007,03,13,07,59,2.80
2007,03,13,08,00,2.90
2007,03,13,08,01,2.90
2007,03,13,08,02,2.90
2007,03,13,08,03,2.90
2007,03,13,08,04,3.00
2007,03,13,08,05,3.00
2007,03,13,08,06,3.00
2007,03,13,08,07,3.10
2007,03,13,08,08,3.10
2007,03,13,08,09,3.10
2007,03,13,08,10,3.10
2007,03,13,08,11,3.10
2007,03,13,08,12,3.10
2007,03,13,08,13,3.10
2007,03,13,08,14,3.10
2007,03,13,08,15,3.10
2007,03,13,08,16,3.10
2007,03,13,08,17,3.10
2007,03,13,08,18,3.20
2007,03,13,08,19,3.20
2007,03,13,08,20,3.20
2007,03,13,08,21,3.20
2007,03,13,08,22,3.20
2007,03,13,08,23,3.20
2007,03,13,08,24,3.20
2007,03,13,08,25,3.20
2007,03,13,08,26,3.20
2007,03,13,08,27,3.20
2007,03,13,08,28,3.30
2007,03,13,08,29,3.30
2007,03,13,08,30,3.30
2007,03,13,08,31,3.30
2007,03,13,08,32,3.30
2007,03,13,08,33,3.30
2007,03,13,08,34,3.30
2007,03,13,08,35,3.40
2007,03,13,08,36,3.40
2007,03,13,08,37,3.50
2007,03,13,08,38,3.60
2007,03,13,08,39,3.70
2007,03,13,08,40,3.80
2007,03,13,08,41,3.90
2007,03,13,08,42,3.90
2007,03,13,08,43,3.80
2007,03,13,08,44,3.80
2007,03,13,08,45,3.70
2007,03,13,08,46,3.60
2007,03,13,08,47,3.60
2007,03,13,08,48,3.50
2007,03,13,08,49,3.50
2007,03,13,08,50,3.50
2007,03,13,08,51,3.50
2007,03,13,08,52,3.40
2007,03,13,08,53,3.20
2007,03,13,08,54,3.10
2007,03,13,08,55,3.00
2007,03,13,08,56,3.00
2007,03,13,08,57,2.90
2007,03,13,08,58,2.80
2007,03,13,08,59,2.80
2007,03,13,09,00,2.80
2007,03,13,09,01,2.80
2007,03,13,09,02,2.80
2007,03,13,09,03,2.80
2007,03,13,09,04,2.80
2007,03,13,09,05,2.80
2007,03,13,09,06,2.70
2007,03,13,09,07,2.70
2007,03,13,09,08,2.80
2007,03,13,09,09,2.90
2007,03,13,09,10,2.90
2007,03,13,09,11,2.80
2007,03,13,09,12,2.80
2007,03,13,09,13,2.80
2007,03,13,09,14,2.80
2007,03,13,09,15,2.90
2007,03,13,09,16,3.00
2007,03,13,09,17,3.20
2007,03,13,09,18,3.30
2007,03,13,09,19,3.30
2007,03,13,09,20,3.30
2007,03,13,09,21,3.30
2007,03,13,09,22,3.20
2007,03,13,09,23,3.20
2007,03,13,09,24,3.20
2007,03,13,09,25,3.30
2007,03,13,09,26,3.30
2007,03,13,09,27,3.30
2007,03,13,09,28,3.30
2007,03,13,09,29,3.30
2007,03,13,09,30,3.30
2007,03,13,09,31,3.50
2007,03,13,09,32,3.60
2007,03,13,09,33,3.60
2007,03,13,09,34,3.60
2007,03,13,09,35,3.60
2007,03,13,09,36,3.60
2007,03,13,09,37,3.50
2007,03,13,09,38,3.50
2007,03,13,09,39,3.40
2007,03,13,09,40,3.40
2007,03,13,09,41,3.40
2007,03,13,09,42,3.50
2007,03,13,09,43,3.60
2007,03,13,09,44,3.70
2007,03,13,09,45,3.80
2007,03,13,09,46,3.90
2007,03,13,09,47,3.90
2007,03,13,09,48,3.90
2007,03,13,09,49,3.90
2007,03,13,09,50,3.80
2007,03,13,09,51,3.80
2007,03,13,09,52,3.80
2007,03,13,09,53,3.70
2007,03,13,09,54,3.70
2007,03,13,09,55,3.70
2007,03,13,09,56,3.60
2007,03,13,09,57,3.60
2007,03,13,09,58,3.60
2007,03,13,09,59,3.60
2007,03,13,10,00,3.60
2007,03,13,10,01,3.70
2007,03,13,10,02,3.80
2007,03,13,10,03,3.90
2007,03,13,10,04,3.90
2007,03,13,10,05,4.00
2007,03,13,10,06,4.00
2007,03,13,10,07,4.20
2007,03,13,10,08,4.20
2007,03,13,10,09,4.20
2007,03,13,10,10,4.20
2007,03,13,10,11,4.20
2007,03,13,10,12,4.20
2007,03,13,10,13,4.10
2007,03,13,10,14,4.10
2007,03,13,10,15,4.10
2007,03,13,10,16,4.10
2007,03,13,10,17,4.10
2007,03,13,10,18,4.20
2007,03,13,10,19,4.30
2007,03,13,10,20,4.30
2007,03,13,10,21,4.30
2007,03,13,10,22,4.30
2007,03,13,10,23,4.30
2007,03,13,10,24,4.30
2007,03,13,10,25,4.40
2007,03,13,10,26,4.40
2007,03,13,10,27,4.30
2007,03,13,10,28,4.30
2007,03,13,10,29,4.30
2007,03,13,10,30,4.30
2007,03,13,10,31,4.30
2007,03,13,10,32,4.30
2007,03,13,10,33,4.20
2007,03,13,10,34,4.20
2007,03,13,10,35,4.20
2007,03,13,10,36,4.20
2007,03,13,10,37,4.20
2007,03,13,10,38,4.20
2007,03,13,10,39,4.30
2007,03,13,10,40,4.40
2007,03,13,10,41,4.40
2007,03,13,10,42,4.40
2007,03,13,10,43,4.40
2007,03,13,10,44,4.40
2007,03,13,10,45,4.40
2007,03,13,10,46,4.40
2007,03,13,10,47,4.40
2007,03,13,10,48,4.40
2007,03,13,10,49,4.40
2007,03,13,10,50,4.40
2007,03,13,10,51,4.30
2007,03,13,10,52,4.30
2007,03,13,10,53,4.30
2007,03,13,10,54,4.30
2007,03,13,10,55,4.30
2007,03,13,10,56,4.40
2007,03,13,10,57,4.40
2007,03,13,10,58,4.50
2007,03,13,10,59,4.50
2007,03,13,11,00,4.50
2007,03,13,11,01,4.50
2007,03,13,11,02,4.50
2007,03,13,11,03,4.50
2007,03,13,11,04,4.50
2007,03,13,11,05,4.50
2007,03,13,11,06,4.60
2007,03,13,11,07,4.60
2007,03,13,11,08,4.60
2007,03,13,11,09,4.60
2007,03,13,11,10,4.60
2007,03,13,11,11,4.60
2007,03,13,11,12,4.70
2007,03,13,11,13,4.70
2007,03,13,11,14,4.80
2007,03,13,11,15,4.90
2007,03,13,11,16,5.00
2007,03,13,11,17,5.00
2007,03,13,11,18,5.10
2007,03,13,11,19,5.20
2007,03,13,11,20,5.30
2007,03,13,11,21,5.40
2007,03,13,11,22,5.50
2007,03,13,11,23,5.60
2007,03,13,11,24,5.60
2007,03,13,11,25,5.60
2007,03,13,11,26,5.60
2007,03,13,11,27,5.60
2007,03,13,11,28,5.60
2007,03,13,11,29,5.50
2007,03,13,11,30,5.60
2007,03,13,11,31,5.60
2007,03,13,11,32,5.60
2007,03,13,11,33,5.60
2007,03,13,11,34,5.60
2007,03,13,11,35,5.70
2007,03,13,11,36,5.70
2007,03,13,11,37,5.80
2007,03,13,11,38,5.80
2007,03,13,11,39,5.80
2007,03,13,11,40,5.80
2007,03,13,11,41,5.80
2007,03,13,11,42,5.80
2007,03,13,11,43,5.90
2007,03,13,11,44,6.00
2007,03,13,11,45,6.00
2007,03,13,11,46,6.10
2007,03,13,11,47,6.10
2007,03,13,11,48,6.10
2007,03,13,11,49,6.10
2007,03,13,11,50,6.20
2007,03,13,11,51,6.30
2007,03,13,11,52,6.30
2007,03,13,11,53,6.30
2007,03,13,11,54,6.30
2007,03,13,11,55,6.30
2007,03,13,11,56,6.30
2007,03,13,11,57,6.30
2007,03,13,11,58,6.30
2007,03,13,11,59,6.40
2007,03,13,12,00,6.50
2007,03,13,12,01,6.50
2007,03,13,12,02,6.60
2007,03,13,12,03,6.70
2007,03,13,12,04,6.70
2007,03,13,12,05,6.70
2007,03,13,12,06,6.60
2007,03,13,12,07,6.50
2007,03,13,12,08,6.40
2007,03,13,12,09,6.40
2007,03,13,12,10,6.30
2007,03,13,12,11,6.30
2007,03,13,12,12,6.30
2007,03,13,12,13,6.30
2007,03,13,12,14,6.30
2007,03,13,12,15,6.20
2007,03,13,12,16,6.20
2007,03,13,12,17,6.10
2007,03,13,12,18,6.10
2007,03,13,12,19,6.10
2007,03,13,12,20,6.10
2007,03,13,12,21,6.10
2007,03,13,12,22,6.20
2007,03,13,12,23,6.20
2007,03,13,12,24,6.20
2007,03,13,12,25,6.20
2007,03,13,12,26,6.20
2007,03,13,12,27,6.20
2007,03,13,12,28,6.30
2007,03,13,12,29,6.50
2007,03,13,12,30,6.50
2007,03,13,12,31,6.60
2007,03,13,12,32,6.80
2007,03,13,12,33,6.90
2007,03,13,12,34,7.00
2007,03,13,12,35,7.00
2007,03,13,12,36,6.90
2007,03,13,12,37,6.90
2007,03,13,12,38,6.80
2007,03,13,12,39,6.90
2007,03,13,12,40,6.90
2007,03,13,12,41,7.00
2007,03,13,12,42,7.20
2007,03,13,12,43,7.20
2007,03,13,12,44,7.20
2007,03,13,12,45,7.20
2007,03,13,12,46,7.20
2007,03,13,12,47,7.10
2007,03,13,12,48,7.10
2007,03,13,12,49,7.10
2007,03,13,12,50,7.00
2007,03,13,12,51,6.90
2007,03,13,12,52,6.90
2007,03,13,12,53,6.90
2007,03,13,12,54,6.90
2007,03,13,12,55,7.00
2007,03,13,12,56,6.90
2007,03,13,12,57,6.90
2007,03,13,12,58,7.00
2007,03,13,12,59,7.10
2007,03,13,13,00,7.10
2007,03,13,13,01,7.10
2007,03,13,13,02,7.10
2007,03,13,13,03,7.10
2007,03,13,13,04,7.00
2007,03,13,13,05,6.90
2007,03,13,13,06,6.90
2007,03,13,13,07,6.90
2007,03,13,13,08,6.90
2007,03,13,13,09,6.90
2007,03,13,13,10,6.80
2007,03,13,13,11,6.80
2007,03,13,13,12,6.80
2007,03,13,13,13,6.90
2007,03,13,13,14,7.10
2007,03,13,13,15,7.20
2007,03,13,13,16,7.20
2007,03,13,13,17,7.20
2007,03,13,13,18,7.10
2007,03,13,13,19,7.00
2007,03,13,13,20,7.00
2007,03,13,13,21,6.90
2007,03,13,13,22,6.90
2007,03,13,13,23,6.90
2007,03,13,13,24,6.90
2007,03,13,13,25,6.90
2007,03,13,13,26,7.00
2007,03,13,13,27,7.00
2007,03,13,13,28,7.00
2007,03,13,13,29,7.00
2007,03,13,13,30,7.00
2007,03,13,13,31,6.90
2007,03,13,13,32,6.90
2007,03,13,13,33,6.80
2007,03,13,13,34,6.80
2007,03,13,13,35,6.80
2007,03,13,13,36,6.80
2007,03,13,13,37,6.80
2007,03,13,13,38,6.80
2007,03,13,13,39,6.80
2007,03,13,13,40,6.80
2007,03,13,13,41,6.80
2007,03,13,13,42,6.80
2007,03,13,13,43,6.80
2007,03,13,13,44,6.70
2007,03,13,13,45,6.70
2007,03,13,13,46,6.80
2007,03,13,13,47,6.80
2007,03,13,13,48,6.80
2007,03,13,13,49,7.00
2007,03,13,13,50,7.00
2007,03,13,13,51,7.20
2007,03,13,13,52,7.30
2007,03,13,13,53,7.40
2007,03,13,13,54,7.50
2007,03,13,13,55,7.70
2007,03,13,13,56,7.80
2007,03,13,13,57,7.90
2007,03,13,13,58,7.90
2007,03,13,13,59,7.90
2007,03,13,14,00,7.90
2007,03,13,14,01,7.90
2007,03,13,14,02,7.80
2007,03,13,14,03,7.80
2007,03,13,14,04,7.70
2007,03,13,14,05,7.60
2007,03,13,14,06,7.50
2007,03,13,14,07,7.40
2007,03,13,14,08,7.40
2007,03,13,14,09,7.50
2007,03,13,14,10,7.50
2007,03,13,14,11,7.60
2007,03,13,14,12,7.60
2007,03,13,14,13,7.60
2007,03,13,14,14,7.60
2007,03,13,14,15,7.50
2007,03,13,14,16,7.50
2007,03,13,14,17,7.40
2007,03,13,14,18,7.30
2007,03,13,14,19,7.30
2007,03,13,14,20,7.20
2007,03,13,14,21,7.20
2007,03,13,14,22,7.10
2007,03,13,14,23,7.00
2007,03,13,14,24,7.00
2007,03,13,14,25,6.90
2007,03,13,14,26,6.90
2007,03,13,14,27,7.00
2007,03,13,14,28,7.00
2007,03,13,14,29,7.10
2007,03,13,14,30,7.20
2007,03,13,14,31,7.20
2007,03,13,14,32,7.20
2007,03,13,14,33,7.20
2007,03,13,14,34,7.20
2007,03,13,14,35,7.10
2007,03,13,14,36,7.10
2007,03,13,14,37,7.10
2007,03,13,14,38,7.10
2007,03,13,14,39,7.20
2007,03,13,14,40,7.20
2007,03,13,14,41,7.20
2007,03,13,14,42,7.30
2007,03,13,14,43,7.20
2007,03,13,14,44,7.20
2007,03,13,14,45,7.10
2007,03,13,14,46,7.00
2007,03,13,14,47,6.90
2007,03,13,14,48,6.90
2007,03,13,14,49,6.90
2007,03,13,14,50,6.90
2007,03,13,14,51,7.00
2007,03,13,14,52,7.10
2007,03,13,14,53,7.10
2007,03,13,14,54,7.10
2007,03,13,14,55,7.10
2007,03,13,14,56,7.00
2007,03,13,14,57,7.10
2007,03,13,14,58,7.00
2007,03,13,14,59,7.10
2007,03,13,15,00,7.10
2007,03,13,15,01,7.10
2007,03,13,15,02,7.00
2007,03,13,15,03,7.00
2007,03,13,15,04,7.00
2007,03,13,15,05,6.90
2007,03,13,15,06,7.00
2007,03,13,15,07,7.00
2007,03,13,15,08,7.00
2007,03,13,15,09,7.10
2007,03,13,15,10,7.10
2007,03,13,15,11,7.20
2007,03,13,15,12,7.20
2007,03,13,15,13,7.20
2007,03,13,15,14,7.20
2007,03,13,15,15,7.20
2007,03,13,15,16,7.20
2007,03,13,15,17,7.20
2007,03,13,15,18,7.20
2007,03,13,15,19,7.30
2007,03,13,15,20,7.40
2007,03,13,15,21,7.40
2007,03,13,15,22,7.40
2007,03,13,15,23,7.40
2007,03,13,15,24,7.40
2007,03,13,15,25,7.40
2007,03,13,15,26,7.40
2007,03,13,15,27,7.40
2007,03,13,15,28,7.30
2007,03,13,15,29,7.30
2007,03,13,15,30,7.30
2007,03,13,15,31,7.30
2007,03,13,15,32,7.30
2007,03,13,15,33,7.30
2007,03,13,15,34,7.30
2007,03,13,15,35,7.40
2007,03,13,15,36,7.40
2007,03,13,15,37,7.50
2007,03,13,15,38,7.60
2007,03,13,15,39,7.60
2007,03,13,15,40,7.70
2007,03,13,15,41,7.70
2007,03,13,15,42,7.70
2007,03,13,15,43,7.60
2007,03,13,15,44,7.60
2007,03,13,15,45,7.60
2007,03,13,15,46,7.50
2007,03,13,15,47,7.50
2007,03,13,15,48,7.50
2007,03,13,15,49,7.50
2007,03,13,15,50,7.50
2007,03,13,15,51,7.40
2007,03,13,15,52,7.30
2007,03,13,15,53,7.30
2007,03,13,15,54,7.30
2007,03,13,15,55,7.30
2007,03,13,15,56,7.20
2007,03,13,15,57,7.20
2007,03,13,15,58,7.20
2007,03,13,15,59,7.20
2007,03,13,16,00,7.20
2007,03,13,16,01,7.10
2007,03,13,16,02,7.10
2007,03,13,16,03,7.10
2007,03,13,16,04,7.10
2007,03,13,16,05,7.10
2007,03,13,16,06,7.10
2007,03,13,16,07,7.10
2007,03,13,16,08,7.10
2007,03,13,16,09,7.10
2007,03,13,16,10,7.10
2007,03,13,16,11,7.10
2007,03,13,16,12,7.10
2007,03,13,16,13,7.10
2007,03,13,16,14,7.00
2007,03,13,16,15,7.00
2007,03,13,16,16,7.00
2007,03,13,16,17,7.00
2007,03,13,16,18,7.00
2007,03,13,16,19,6.90
2007,03,13,16,20,6.90
2007,03,13,16,21,6.90
2007,03,13,16,22,6.90
2007,03,13,16,23,6.90
2007,03,13,16,24,7.00
2007,03,13,16,25,7.00
2007,03,13,16,26,7.00
2007,03,13,16,27,7.00
2007,03,13,16,28,7.10
2007,03,13,16,29,7.10
2007,03,13,16,30,7.00
2007,03,13,16,31,7.00
2007,03,13,16,32,7.00
2007,03,13,16,33,7.00
2007,03,13,16,34,7.00
2007,03,13,16,35,7.00
2007,03,13,16,36,7.00
2007,03,13,16,37,6.90
2007,03,13,16,38,6.90
2007,03,13,16,39,6.90
2007,03,13,16,40,6.90
2007,03,13,16,41,6.90
2007,03,13,16,42,6.90
2007,03,13,16,43,6.90
2007,03,13,16,44,6.90
2007,03,13,16,45,6.90
2007,03,13,16,46,6.90
2007,03,13,16,47,6.90
2007,03,13,16,48,6.80
2007,03,13,16,49,6.80
2007,03,13,16,50,6.80
2007,03,13,16,51,6.70
2007,03,13,16,52,6.70
2007,03,13,16,53,6.80
2007,03,13,16,54,6.80
2007,03,13,16,55,6.80
2007,03,13,16,56,6.90
2007,03,13,16,57,7.00
2007,03,13,16,58,7.00
2007,03,13,16,59,7.10
2007,03,13,17,00,7.10
2007,03,13,17,01,7.00
2007,03,13,17,02,7.00
2007,03,13,17,03,7.00
2007,03,13,17,04,7.00
2007,03,13,17,05,6.90
2007,03,13,17,06,6.90
2007,03,13,17,07,6.90
2007,03,13,17,08,6.90
2007,03,13,17,09,6.90
2007,03,13,17,10,6.90
2007,03,13,17,11,6.90
2007,03,13,17,12,6.90
2007,03,13,17,13,6.80
2007,03,13,17,14,6.80
2007,03,13,17,15,6.80
2007,03,13,17,16,6.80
2007,03,13,17,17,6.80
2007,03,13,17,18,6.80
2007,03,13,17,19,6.80
2007,03,13,17,20,6.80
2007,03,13,17,21,6.70
2007,03,13,17,22,6.70
2007,03,13,17,23,6.70
2007,03,13,17,24,6.70
2007,03,13,17,25,6.70
2007,03,13,17,26,6.70
2007,03,13,17,27,6.70
2007,03,13,17,28,6.70
2007,03,13,17,29,6.60
2007,03,13,17,30,6.60
2007,03,13,17,31,6.60
2007,03,13,17,32,6.50
2007,03,13,17,33,6.50
2007,03,13,17,34,6.50
2007,03,13,17,35,6.50
2007,03,13,17,36,6.40
2007,03,13,17,37,6.40
2007,03,13,17,38,6.30
2007,03,13,17,39,6.20
2007,03,13,17,40,6.20
2007,03,13,17,41,6.20
2007,03,13,17,42,6.20
2007,03,13,17,43,6.20
2007,03,13,17,44,6.20
2007,03,13,17,45,6.20
2007,03,13,17,46,6.30
2007,03,13,17,47,6.30
2007,03,13,17,48,6.40
2007,03,13,17,49,6.40
2007,03,13,17,50,6.40
2007,03,13,17,51,6.40
2007,03,13,17,52,6.40
2007,03,13,17,53,6.50
2007,03,13,17,54,6.50
2007,03,13,17,55,6.50
2007,03,13,17,56,6.50
2007,03,13,17,57,6.60